Regional Weather Roundup
Issued by NWS

Home | Current Version | Previous Version | Text Only | Print | Product List | Glossary Off
Versions: 1 2 3 4 5 6 7 8 9 10 11 12 13 14 15 16 17 18 19 20 21 22 23 24 25 26 27 28 29 30 31 32 33 34 35 36 37 38 39 40 41 42 43 44 45 46 47 48 49 50

000
ASUS43 KLOT 301721
RWRIL

ILLINOIS REGIONAL WEATHER ROUNDUP
NATIONAL WEATHER SERVICE CHICAGO/ROMEOVILLE IL
1200 PM CDT SAT MAY 30 2015

NOTE: "FAIR" INDICATES FEW OR NO CLOUDS BELOW 12,000 FEET WITH NO
SIGNIFICANT WEATHER AND/OR OBSTRUCTIONS TO VISIBILITY.

* THESE STATIONS ARE NOT UNDER NWS QUALITY CONTROL. THEY ALSO MAY NOT
  REPORT WEATHER SUCH AS PRECIPITATION OR FOG.

ILZ001-002-007-009-015-016-024-301800-
NORTHWEST ILLINOIS

CITY           SKY/WX    TMP DP  RH WIND       PRES   REMARKS
MOLINE         CLOUDY    71  65  81 CALM      29.98S
STERLING*      CLOUDY    70  64  83 CALM      29.99S
SAVANNA*       HVY RAIN  63  60  90 N17G23    30.00R VSB 1
$$

ILZ003-004-008-010-011-017-018-301800-
NORTH CENTRAL ILLINOIS

CITY           SKY/WX    TMP DP  RH WIND       PRES   REMARKS
ROCKFORD       LGT RAIN  68  65  90 S5        30.01R FOG
FREEPORT*      LGT RAIN  55  54  94 NE25G32   30.05R
ROCHELLE*      RAIN      67  65  94 CALM      30.01R
DE KALB*       RAIN      65  62  88 CALM      30.01S
PERU*          LGT RAIN  68  64  86 NW3       30.00S
$$

ILZ005-006-012>014-019>023-301800-
NORTHEAST ILLINOIS

CITY           SKY/WX    TMP DP  RH WIND       PRES   REMARKS
CHICAGO-OHARE  LGT RAIN  52  51  97 N15       30.03R
CHICAGO-MIDWAY CLOUDY    59  57  93 NE10      30.01R
AURORA         CLOUDY    70  62  76 CALM      30.00S
LANSING*       CLOUDY    69  64  82 CALM      29.99F
JOLIET*        CLOUDY    69  66  89 CALM      29.99S
WAUKEGAN       LGT RAIN  49  47  93 N15G22    30.05R
DUPAGE AIRPORT LGT RAIN  60  57  89 NE16      30.01R
KANKAKEE*      CLOUDY    71  66  87 NE5       29.99F
WHEELING       LGT RAIN  51  49  92 N12       30.06R
MORRIS*        CLOUDY    69  64  86 CALM      29.98S
ROMEOVILLE*    CLOUDY    67  64  89 CALM      30.00S
NORTHERLY ISL    N/A     52  51  97 N17         N/A
$$

LMZ740>746-301800-
SOUTHERN LAKE MICHIGAN

STATION/POSITION SKY/WX   TEMP    WIND        PRES    VSBY  WAVE
                          AIR SEA DIR/SP/G                  HT/PER
                          (F)     (DEG/KT/KT) (MB)    (MI)  (FT/S)
SOUTHERN BUOY              41 38  330/ 10/ 12 1017.7R         1/ 3
HARRISON CRIB              49     350/ 21/ 24   N/A
BURNHAM HARBOR             52      90/ 16/ 19   N/A
CALUMET HARBOR             54     330/ 12/ 18   N/A
BURNS HARBOR               64     310/  4/  4 1016.6R
MICHIGAN CITY              62     220/  4/  4   N/A
MICHIGAN CITY 6N           59 57  330/  4/  4   N/A           0
ST. JOSEPH                 60 58  300/  4/  6   N/A           1
$$

ILZ025>027-034>036-040-047-049-050-058-095>099-301800-
WEST-CENTRAL ILLINOIS

CITY           SKY/WX    TMP DP  RH WIND       PRES   REMARKS
QUINCY         LGT RAIN  68  65  90 NW8       29.99F FOG
GALESBURG*     LGT RAIN  68  65  90 SW3       29.99F
MACOMB*        LGT RAIN  69  65  88 W3        30.01F
JACKSONVILLE*  DRIZZLE   70  67  91 N6        29.98S
PITTSFIELD*    LGT RAIN  69  66  90 N6        30.00F
$$

ILZ028>032-037-038-041>044-048-051>054-059>061-301800-
CENTRAL ILLINOIS

CITY           SKY/WX    TMP DP  RH WIND       PRES   REMARKS
PONTIAC        LGT RAIN  71  67  89 CALM      30.00S
BLOOMINGTON    HVY RAIN  70  68  93 CALM      30.00S FOG
DECATUR        CLOUDY    76  68  76 SW3       29.95F
PEORIA         LGT RAIN  69  65  86 N3        29.99S FOG
LACON*         RAIN      66  64  91 CALM      29.99S
LINCOLN*       DRIZZLE   71  67  87 CALM      29.95F
SPRINGFIELD    LGT RAIN  72  67  84 N5        29.97F
TAYLORVILLE    CLOUDY    72  68  88 CALM      29.96F
$$

ILZ033-039-045-046-055>057-062-063-301800-
EAST-CENTRAL ILLINOIS

CITY           SKY/WX    TMP DP  RH WIND       PRES   REMARKS
CHAMPAIGN      CLOUDY    74  70  87 E3        29.96F
DANVILLE*      CLOUDY    73  69  85 SE6       29.95F
RANTOUL*       DRIZZLE   74  69  83 E3        29.97F
MATTOON        PTSUNNY   77  67  71 SW9       29.94F
PARIS*         MOSUNNY   82  69  64 S15       29.97F HX  85
$$

ILZ079-100>102-301800-
SOUTHWEST ILLINOIS

CITY           SKY/WX    TMP DP  RH WIND       PRES   REMARKS
BELLEVILLE     CLOUDY    75  72  88 W5        29.93S
CAHOKIA*       PTSUNNY   74  68  81 NW3       29.95S
SPARTA*        PTSUNNY   75  70  86 CALM      29.94F
$$

ILZ064>066-069>071-074>076-080>082-084>086-088>090-092>094-301800-
SOUTH-CENTRAL ILLINOIS

CITY           SKY/WX    TMP DP  RH WIND       PRES   REMARKS
CARBONDALE     MOSUNNY   80  68  66 S14G22    29.94F HX  83
CAIRO*         PTSUNNY   80  68  66 S13       29.94F HX  82
EFFINGHAM*     PTSUNNY   78  67  70 SE7       29.97F
MARION         PTSUNNY   81  70  69 S14       29.96F HX  84
MT. VERNON     PTSUNNY   81  70  69 S12       29.95F HX  84
CENTRALIA*     PTSUNNY   82  70  66 SW6       29.95F HX  86
SALEM*         CLOUDY    75  68  78 W5        29.96R
METROPOLIS*    MOSUNNY   81  68  64 S9G18     29.96F HX  84
$$

ILZ067-068-072-073-078-083-087-091-301800-
SOUTHEAST ILLINOIS

CITY           SKY/WX    TMP DP  RH WIND       PRES   REMARKS
LAWRENCEVILLE  MOSUNNY   86  67  52 S22G29    29.96F HX  89
FLORA*         MOSUNNY   76  70  80 SW9       29.96F
FAIRFIELD*     PTSUNNY   83  68  62 S12G22    29.94F HX  86
HARRISBURG*    MOSUNNY   80  67  65 S8        29.97F HX  82
ROBINSON*      PTSUNNY   83  67  58 S13       29.96F HX  85
CARMI*         MOSUNNY   84  61  45 SE17G24   29.95F HX  84
$$

ABBREVIATIONS USED IN REMARKS
   TC - TEMPERATURE IN CELSIUS
  WCI - WIND CHILL INDEX
   HX - HEAT INDEX
  VSB - VISIBILITY
$$



USA.gov is the U.S. government's official web portal to all federal, state and local government web resources and services.